Temperature
18 18 18 18 18 18 18 18 18 18 18 18 18 18 18 18 18 18 18 18 18 18 18 18 18 18 18 18 18 18 18 18 18 18 18 18 18 18 18 18 18 18 18
19 18 18 18 18 18 18 18 18 18 18 18 18 18 18 18 18 18 18 18 18 18 18 18 18 18 18 18 18 18 18 18 18 18 18 18 18 18 18 18 18 18 18
19 19 19 19 19 19 19 18 18 18 18 18 18 18 18 18 18 18 18 18 18 18 18 18 18 18 18 18 18 18 18 18 18 18 18 18 18 18 18 18 18 18 18
19 19 19 19 19 19 19 19 18 18 18 18 18 18 18 18 18 18 18 18 18 18 18 18 18 18 18 18 18 18 18 18 18 18 18 18 18 18 18 18 18 18 18
19 19 19 19 19 19 19 19 18 18 18 18 18 18 18 18 18 18 18 18 18 18 18 18 18 18 18 18 18 18 18 17 18 18 18 18 18 18 18 18 18 18 18
19 19 19 19 19 19 19 19 18 18 18 18 18 18 18 18 18 18 18 18 18 18 18 18 18 18 18 18 18 18 18 17 17 17 18 18 18 18 18 18 18 18 18
19 19 19 19 19 19 19 19 18 18 18 18 18 18 18 18 18 18 18 18 18 18 18 18 18 18 18 18 18 17 17 17 18 18 18 18 18 18 18 18 18 18 18
19 19 19 19 19 19 19 19 18 18 18 18 18 18 18 18 18 18 18 18 18 18 18 18 18 18 18 18 18 17 17 17 18 18 18 18 18 18 18 18 18 18 18
19 19 19 19 19 19 19 19 19 19 18 18 18 18 18 18 18 18 18 18 18 18 18 18 18 18 18 18 18 18 18 17 18 18 18 18 18 18 18 18 18 18 18
19 19 19 19 19 19 19 19 19 19 19 18 18 18 18 18 18 18 18 18 18 18 18 18 18 18 18 18 18 18 18 18 18 18 18 18 18 18 18 18 18 18 17
19 19 19 19 19 19 19 19 19 19 18 18 18 18 18 18 18 18 18 18 18 18 18 18 18 18 18 18 18 18 18 18 18 18 18 18 18 18 18 18 18 17 17
19 19 19 19 19 19 19 19 19 18 18 18 18 18 18 18 18 18 18 18 18 18 18 18 18 18 18 18 18 18 18 18 18 18 18 18 18 18 18 18 17 17 17
20 19 19 19 19 19 19 19 19 18 18 18 18 18 18 18 18 18 18 18 18 18 18 18 18 18 18 18 18 18 18 18 18 18 18 18 18 18 18 18 17 17 17
20 20 19 19 19 19 19 19 19 19 18 18 18 18 18 18 18 18 18 18 18 18 18 18 18 18 18 18 18 18 18 18 18 18 18 18 18 18 18 17 17 17 17
20 20 19 19 19 19 19 19 19 19 19 18 18 18 18 18 18 18 18 18 18 18 18 18 18 18 18 18 18 18 18 18 18 18 18 18 17 17 17 17 17 17 17
20 20 20 19 19 19 19 19 19 19 18 18 18 18 18 18 18 18 18 18 18 18 18 18 18 18 18 18 18 18 18 18 18 18 18 18 17 17 17 17 17 17 17
20 20 20 20 19 19 19 19 19 19 19 18 18 18 18 18 18 18 18 18 18 18 18 18 18 18 18 18 18 18 18 18 18 18 18 17 17 17 17 17 17 17 17
21 20 20 20 20 19 19 19 19 19 19 19 19 18 18 18 18 18 18 18 18 18 18 18 18 18 18 18 18 18 18 18 18 18 17 17 17 17 17 17 17 17 17
21 20 20 20 20 19 19 19 19 19 19 19 18 18 18 18 18 18 18 18 18 18 18 18 18 18 18 18 18 18 18 18 18 18 17 17 17 17 17 17 17 17 16
21 21 20 20 20 19 19 19 19 19 19 19 19 18 18 18 18 18 18 18 18 18 18 18 18 18 18 18 18 18 17 17 17 17 17 17 17 17 17 17 17 17 16
21 21 20 20 20 20 19 19 19 19 19 19 19 18 18 18 18 18 18 18 18 18 18 18 18 18 18 18 18 17 17 17 17 17 17 17 17 17 17 17 16 16 16
21 21 21 20 20 20 20 19 19 19 19 19 19 19 18 18 18 18 18 18 18 18 18 18 18 18 17 17 17 17 17 17 17 17 17 17 17 17 17 16 16 16 16
22 21 21 21 20 20 20 19 19 19 19 19 19 19 19 18 18 18 18 18 18 18 18 18 18 18 18 17 17 17 17 17 16 17 17 17 16 17 16 16 16 16 16
22 22 21 21 21 20 20 19 19 19 19 19 19 19 19 19 19 18 18 18 18 18 18 18 18 18 17 17 17 17 17 17 17 16 16 16 16 16 16 16 16 16 16
22 22 22 21 21 20 20 20 19 19 19 19 19 19 19 19 19 18 18 18 18 18 18 18 18 17 17 17 17 17 17 17 17 16 16 16 16 16 16 16 16 16 16
22 22 22 21 21 21 20 20 20 20 19 19 19 19 19 19 19 18 18 18 18 18 18 18 18 17 17 17 17 17 17 17 17 16 16 16 16 16 16 16 16 16 16
Wind_Speed
1 2 10 12 14 15 16 16 17 17 17 18 18 18 18 18 18 18 19 19 19 19 19 19 19 19 19 19 19 19 19 19 18 18 17 17 16 16 15 15 14 13 14
3 5 10 13 14 15 15 16 16 17 17 17 17 18 18 18 18 19 19 19 19 19 19 19 19 19 18 18 18 18 18 17 17 17 16 15 15 15 14 14 13 12 14
5 6 10 12 13 14 15 15 16 16 16 16 17 17 18 17 17 18 19 18 18 18 18 18 18 18 17 17 16 16 16 16 16 15 14 12 12 14 14 14 14 13 13
7 7 10 12 13 14 15 15 15 15 15 16 16 16 17 17 17 17 18 18 18 17 17 17 16 16 15 15 14 14 14 14 15 14 10 9 10 13 14 14 13 13 12
7 8 11 12 13 14 15 14 15 15 15 15 15 16 16 16 16 16 16 16 16 16 16 15 15 14 14 13 12 12 12 12 12 10 9 9 9 12 13 13 13 11 11
6 9 12 13 13 13 14 14 14 14 14 14 15 15 15 15 15 15 15 15 15 14 14 13 12 12 12 11 11 11 10 10 10 9 9 9 9 11 12 13 12 11 10
7 8 12 14 13 14 14 13 13 13 13 13 14 14 14 14 14 14 14 13 13 12 12 11 11 10 10 10 9 8 8 9 9 8 8 8 10 12 12 12 12 11 10
9 9 11 13 13 14 14 13 13 12 12 12 13 13 13 13 13 13 12 12 11 11 10 9 8 8 8 8 7 6 7 8 8 8 7 8 10 11 12 12 12 11 11
10 8 8 10 11 12 12 12 12 12 11 11 11 11 11 11 11 11 10 10 10 9 8 8 7 6 6 6 5 5 5 6 6 7 7 8 10 12 12 11 11 11 11
8 7 7 8 8 8 10 11 11 10 10 10 10 9 10 9 9 9 8 8 8 8 7 6 6 4 4 4 4 4 4 4 5 6 7 8 11 12 12 12 12 11 11
8 6 6 7 7 7 8 9 9 9 9 8 7 8 7 6 7 7 7 7 7 6 6 6 5 4 3 3 3 3 3 3 6 5 7 10 12 12 12 11 12 12 11
8 6 5 6 6 7 7 7 6 6 6 5 5 6 6 6 6 6 6 5 5 5 4 4 3 3 3 2 3 3 2 4 5 5 7 11 11 12 11 11 12 12 11
8 7 6 6 6 6 4 6 4 4 5 4 5 5 5 5 4 4 3 2 2 2 2 1 2 2 2 3 2 2 3 4 4 5 8 11 12 11 11 11 11 11 11
8 7 6 6 5 5 5 5 4 4 4 4 5 5 5 3 2 2 1 2 2 2 1 1 1 2 2 3 3 3 4 4 4 5 8 11 12 12 12 11 11 11 10
8 7 6 6 5 4 4 3 4 3 3 4 5 5 5 3 2 2 1 1 2 2 2 1 1 1 1 2 3 3 4 5 6 6 7 10 12 13 12 11 10 10 10
8 8 6 6 5 5 4 3 3 3 4 4 4 4 5 4 3 2 1 1 1 2 3 2 2 1 1 2 2 2 3 5 6 6 6 8 10 11 11 11 10 10 9
9 8 7 7 5 5 5 4 4 4 4 3 3 4 4 5 4 3 1 1 1 1 1 1 1 1 1 2 1 1 2 3 5 6 6 6 7 9 10 9 9 9 9
9 8 7 7 6 5 4 4 4 4 4 3 3 4 4 5 5 3 2 1 1 1 1 1 1 1 1 1 1 1 1 2 3 5 5 6 6 5 7 8 8 9 9
10 9 7 6 6 5 4 3 3 4 3 3 3 3 3 4 5 4 2 1 2 1 1 1 1 1 1 0 1 0 0 1 1 3 3 4 5 6 5 6 8 8 8
9 8 7 6 6 5 4 3 2 2 1 2 3 3 3 3 4 4 2 1 2 2 1 1 1 1 1 0 1 1 1 1 1 1 2 3 4 5 5 5 5 7 8
8 8 7 7 6 5 3 3 2 2 1 1 2 3 3 3 4 3 1 1 1 2 1 1 1 1 1 1 2 2 3 2 1 1 1 1 2 3 4 4 4 4 4
10 9 8 8 6 6 4 4 3 3 2 2 1 2 3 4 4 4 2 1 1 2 1 1 1 1 0 1 2 2 2 3 3 1 1 0 1 1 2 2 3 3 3
11 11 10 8 7 6 5 3 2 2 1 1 1 1 2 4 4 4 3 2 2 2 2 1 1 2 1 1 1 3 2 2 2 2 2 1 1 1 0 1 1 2 3
12 11 10 9 8 7 6 5 5 4 3 3 3 2 2 3 4 4 3 3 2 2 1 1 1 1 2 0 1 1 2 3 2 1 2 2 1 1 0 0 1 1 3
13 12 10 9 8 7 6 6 6 4 3 2 2 2 2 2 3 3 3 3 2 1 1 1 0 1 2 2 1 1 0 1 1 2 1 2 2 2 1 0 1 1 2
11 11 10 10 8 8 7 7 6 6 4 4 3 3 2 2 2 2 3 2 2 2 2 2 1 2 2 2 1 1 2 2 2 2 2 1 1 2 1 1 0 1 1
Wind_Direction
33 86 96 92 89 88 89 90 90 89 88 91 93 96 99 101 103 105 107 109 110 111 112 112 113 115 117 120 121 122 123 125 125 124 124 124 124 122 122 120 118 117 121
140 112 101 98 94 91 92 93 92 91 90 93 96 97 98 100 102 104 106 108 110 110 112 112 114 116 117 118 120 122 124 126 126 127 125 124 125 124 125 124 120 123 125
123 118 109 103 99 97 96 96 95 94 92 95 99 99 99 100 103 105 107 109 110 110 111 112 114 115 116 119 122 125 127 128 126 127 124 123 125 126 127 127 126 128 128
129 127 117 110 105 104 102 100 99 97 96 99 103 103 102 102 104 107 109 109 110 111 111 113 114 115 117 120 123 125 128 131 132 131 126 128 132 134 133 133 133 134 133
128 131 124 115 110 111 109 106 104 102 100 101 103 105 106 105 106 108 109 110 110 112 114 115 116 117 119 120 122 126 130 132 135 134 130 131 134 140 139 139 140 141 141
133 135 129 120 114 113 113 110 107 105 104 104 104 106 109 110 112 112 110 110 112 114 116 117 118 119 118 119 121 124 127 129 130 132 133 138 143 149 148 149 149 150 149
136 132 129 123 119 117 117 112 110 109 109 108 109 111 112 112 112 113 115 115 116 116 117 119 121 121 119 119 120 121 123 133 135 134 137 147 154 158 157 157 157 155 156
136 133 134 126 123 123 121 116 114 113 112 113 112 114 116 118 120 120 122 124 123 121 120 123 126 127 126 125 123 119 119 132 136 141 142 151 160 164 162 164 165 163 164
133 135 132 133 131 126 124 120 117 116 114 116 117 118 119 121 123 125 128 131 132 131 134 137 140 141 140 136 131 126 120 129 136 147 156 155 161 163 162 164 169 171 173
131 136 139 136 136 137 132 128 128 125 122 122 122 122 123 127 130 132 133 138 140 141 146 153 156 159 153 149 148 145 135 137 144 157 158 162 166 168 168 171 173 175 178
136 139 142 142 144 151 146 140 137 135 133 130 127 127 122 125 129 136 139 148 151 152 159 164 170 177 175 178 178 173 161 143 142 152 165 170 172 173 174 178 181 183 185
146 151 147 145 151 157 151 145 148 145 139 137 136 128 133 138 142 142 144 152 158 160 164 172 184 197 196 198 203 200 171 152 151 163 174 177 179 180 180 183 188 189 193
149 146 150 147 152 156 146 148 155 152 145 140 137 134 132 132 135 138 142 151 155 158 167 187 184 199 194 194 191 183 178 159 167 174 177 181 183 187 186 185 189 192 196
141 141 146 145 142 142 140 147 158 161 156 152 153 149 136 127 125 135 147 164 168 168 167 184 197 221 215 206 190 183 182 171 171 172 181 185 185 188 190 190 192 195 200
140 139 144 139 133 134 121 135 143 152 158 151 149 146 138 133 138 149 153 162 186 182 177 192 191 188 172 154 168 169 170 172 175 175 183 190 191 191 193 196 196 202 206
145 148 145 140 137 127 122 127 137 152 155 146 152 153 143 143 140 132 123 126 187 200 194 180 162 147 142 137 155 160 176 175 175 178 182 191 193 195 198 203 204 206 209
150 151 150 147 138 131 132 141 145 151 143 144 159 157 140 139 141 136 124 122 185 188 165 128 95 90 121 126 148 168 169 177 176 176 180 184 193 199 200 204 207 211 213
149 153 158 151 146 147 144 139 144 147 142 149 151 147 143 144 138 128 117 128 173 128 104 98 71 75 76 119 161 210 189 180 187 182 178 184 190 194 200 208 215 219 216
156 155 156 150 150 153 146 139 141 146 148 158 154 157 158 145 135 130 126 144 144 102 60 92 75 101 96 91 194 230 256 214 200 181 179 186 192 191 193 207 218 223 223
160 155 155 153 154 151 135 119 105 112 143 156 162 178 164 151 144 135 125 128 119 91 53 60 80 67 108 147 88 24 330 279 220 210 200 184 186 192 196 207 219 228 228
160 157 158 159 162 151 140 144 144 159 175 168 177 186 172 161 153 143 140 110 118 122 140 111 91 69 40 77 73 30 5 357 298 255 219 169 176 190 191 200 210 218 223
168 166 165 170 169 165 162 162 165 166 180 184 189 181 178 163 160 164 163 156 143 129 93 90 91 95 48 102 117 100 19 354 351 355 341 167 155 143 154 181 185 188 203
173 174 175 176 173 174 166 146 138 98 63 73 201 212 203 179 172 173 178 159 146 154 171 196 153 133 165 284 143 144 148 220 307 343 2 36 50 74 82 106 131 167 176
179 176 173 174 173 176 167 158 161 167 182 206 202 205 209 191 184 182 173 160 158 161 178 223 180 155 146 231 288 201 176 169 170 303 336 346 4 30 287 122 94 132 149
179 176 175 172 173 173 168 171 171 176 189 191 182 184 194 203 196 187 181 163 161 171 187 212 202 172 171 180 203 214 108 93 154 167 261 311 343 336 327 299 118 101 129
177 177 176 173 178 176 173 173 175 181 182 174 187 192 201 214 225 212 190 184 183 185 204 211 210 200 209 202 201 195 186 179 194 169 206 256 284 302 322 358 44 88 113
Height
1520 1518 1517 1515 1514 1513 1512 1511 1511 1510 1510 1509 1509 1510 1510 1511 1511 1512 1513 1514 1516 1518 1520 1521 1523 1525 1527 1529 1530 1532 1534 1535 1537 1539 1540 1542 1543 1544 1545 1546 1547 1548 1549
1521 1520 1519 1518 1516 1515 1514 1514 1513 1513 1513 1512 1512 1513 1513 1514 1514 1515 1516 1517 1519 1521 1523 1524 1526 1528 1529 1531 1533 1535 1536 1537 1539 1541 1542 1544 1545 1546 1547 1547 1548 1549 1550
1522 1521 1521 1520 1518 1518 1517 1517 1516 1516 1515 1515 1516 1516 1516 1517 1517 1518 1519 1521 1523 1524 1526 1527 1529 1531 1532 1534 1535 1537 1538 1540 1541 1543 1544 1545 1546 1547 1548 1548 1549 1550 1551
1523 1522 1522 1521 1520 1520 1519 1519 1519 1519 1518 1518 1519 1519 1520 1520 1521 1522 1523 1524 1526 1527 1529 1530 1531 1533 1535 1536 1538 1539 1540 1542 1543 1544 1545 1546 1547 1548 1549 1550 1550 1551 1552
1523 1524 1523 1523 1522 1522 1522 1522 1522 1522 1522 1522 1522 1523 1523 1524 1525 1525 1526 1527 1529 1530 1531 1533 1534 1535 1537 1538 1540 1541 1542 1543 1544 1545 1546 1547 1548 1549 1550 1550 1551 1551 1552
1524 1525 1525 1525 1524 1524 1524 1524 1524 1525 1525 1525 1525 1525 1526 1527 1528 1528 1529 1530 1531 1533 1534 1535 1536 1538 1539 1540 1542 1542 1543 1544 1545 1546 1547 1548 1549 1550 1550 1551 1551 1552 1553
1525 1526 1526 1527 1527 1526 1527 1527 1527 1528 1528 1528 1528 1528 1529 1530 1531 1531 1532 1533 1534 1535 1536 1538 1539 1540 1541 1542 1543 1544 1545 1545 1546 1547 1548 1549 1550 1550 1551 1551 1552 1552 1553
1527 1528 1528 1529 1529 1529 1530 1530 1530 1530 1531 1531 1531 1532 1532 1533 1533 1534 1535 1536 1537 1538 1539 1540 1541 1542 1543 1544 1544 1545 1546 1546 1547 1548 1549 1550 1550 1550 1551 1551 1552 1553 1553
1530 1530 1531 1532 1532 1532 1532 1533 1532 1533 1533 1534 1534 1535 1535 1535 1536 1537 1537 1538 1539 1540 1540 1541 1542 1543 1544 1545 1545 1546 1547 1547 1547 1548 1549 1550 1550 1551 1551 1551 1552 1553 1553
1532 1533 1534 1534 1534 1534 1535 1535 1535 1536 1536 1536 1537 1537 1538 1538 1538 1539 1539 1540 1541 1541 1542 1543 1544 1545 1545 1545 1546 1547 1547 1548 1547 1549 1549 1550 1551 1551 1551 1551 1552 1552 1553
1534 1535 1536 1536 1537 1537 1537 1538 1538 1538 1539 1539 1539 1539 1539 1540 1540 1540 1541 1541 1542 1543 1543 1544 1544 1545 1546 1546 1547 1547 1547 1548 1548 1549 1550 1550 1551 1551 1551 1551 1551 1551 1552
1536 1537 1537 1538 1539 1539 1539 1540 1540 1541 1541 1541 1541 1541 1541 1542 1542 1542 1543 1543 1543 1544 1544 1545 1545 1546 1546 1546 1547 1547 1548 1548 1549 1549 1549 1550 1550 1550 1550 1550 1550 1551 1551
1537 1538 1539 1540 1540 1541 1541 1542 1542 1542 1543 1543 1543 1543 1543 1543 1543 1543 1544 1544 1544 1545 1545 1546 1546 1546 1546 1547 1547 1548 1548 1548 1548 1549 1549 1549 1549 1550 1550 1550 1550 1550 1550
1538 1539 1540 1541 1542 1542 1543 1543 1544 1544 1544 1545 1545 1545 1544 1544 1544 1544 1545 1545 1545 1545 1545 1545 1546 1546 1546 1547 1547 1547 1547 1548 1548 1548 1548 1549 1549 1549 1549 1549 1549 1549 1549
1539 1540 1541 1542 1543 1543 1544 1544 1545 1545 1545 1546 1546 1546 1546 1546 1545 1545 1545 1545 1546 1546 1546 1546 1546 1546 1546 1547 1547 1547 1547 1547 1548 1547 1547 1548 1548 1548 1548 1548 1548 1548 1548
1539 1540 1542 1542 1543 1544 1545 1545 1545 1546 1546 1546 1547 1546 1546 1546 1546 1546 1546 1546 1546 1546 1546 1546 1546 1546 1546 1546 1546 1546 1546 1546 1547 1547 1547 1547 1547 1547 1547 1547 1547 1547 1546
1539 1541 1542 1543 1544 1545 1545 1546 1546 1547 1547 1547 1547 1547 1547 1547 1546 1546 1546 1546 1546 1546 1546 1546 1546 1546 1546 1546 1546 1546 1546 1546 1546 1546 1546 1546 1546 1545 1546 1546 1545 1545 1545
1540 1541 1542 1543 1544 1545 1545 1546 1547 1547 1547 1548 1548 1548 1547 1547 1547 1547 1547 1546 1546 1546 1546 1546 1545 1545 1545 1545 1545 1545 1545 1545 1545 1545 1544 1544 1544 1544 1544 1544 1544 1544 1543
1539 1541 1542 1543 1544 1545 1546 1546 1547 1547 1548 1548 1548 1548 1548 1547 1547 1547 1547 1546 1546 1546 1546 1545 1545 1545 1545 1545 1544 1544 1544 1543 1543 1543 1543 1543 1543 1543 1543 1542 1542 1542 1541
1540 1541 1542 1543 1544 1545 1546 1546 1547 1547 1548 1548 1548 1548 1548 1548 1547 1547 1547 1547 1546 1546 1545 1545 1545 1544 1544 1544 1543 1543 1543 1543 1542 1542 1542 1541 1541 1541 1541 1541 1540 1540 1539
1539 1540 1541 1542 1543 1544 1545 1545 1546 1547 1547 1547 1548 1548 1548 1548 1548 1547 1547 1546 1546 1546 1545 1545 1544 1544 1543 1543 1542 1542 1542 1542 1541 1541 1540 1540 1540 1539 1539 1538 1538 1538 1537
1537 1539 1540 1541 1542 1543 1544 1545 1546 1546 1547 1547 1547 1548 1547 1547 1547 1547 1547 1546 1546 1545 1545 1544 1544 1543 1543 1542 1542 1541 1541 1541 1540 1540 1539 1539 1538 1538 1537 1537 1536 1536 1535
1535 1537 1538 1540 1541 1542 1543 1544 1545 1546 1546 1546 1546 1547 1547 1547 1547 1547 1546 1546 1545 1545 1544 1543 1543 1543 1542 1542 1541 1541 1540 1540 1539 1539 1538 1538 1537 1536 1536 1535 1535 1534 1533
1533 1535 1536 1538 1540 1541 1542 1543 1543 1544 1544 1545 1545 1546 1546 1546 1546 1546 1546 1545 1545 1544 1544 1543 1542 1542 1541 1541 1540 1540 1540 1539 1539 1538 1537 1537 1536 1535 1534 1534 1533 1532 1532
1531 1533 1535 1536 1538 1540 1541 1542 1542 1543 1543 1544 1545 1545 1545 1545 1545 1545 1545 1545 1544 1544 1543 1542 1542 1541 1540 1540 1539 1539 1538 1538 1538 1537 1536 1536 1535 1534 1534 1533 1532 1531 1531
1530 1532 1533 1535 1536 1538 1539 1540 1541 1541 1542 1543 1543 1543 1544 1544 1544 1544 1544 1544 1543 1543 1542 1541 1541 1540 1539 1539 1538 1538 1537 1536 1536 1535 1534 1533 1533 1533 1533 1532 1531 1531 1530